Location: Bagnara
(41.0500°N, 14.7833°E)
Time: 08:41:06
(UTC+00:00)

Cosmos 1076 Rocket - Pass Details

Date: 20 June 2021
Orbit: 590 x 611 km, 82.5° (Epoch: 02 August)

Event Time Altitude Azimuth Distance (km) Brightness Sun altitude
Exits shadow 00:12:58 39° 110° (ESE) 889 4.3 -23.5°
Maximum altitude 00:13:26 41° 92° (E) 868 4.3 -23.4°
Drops below altitude 10° 00:17:25 10° 23° (NNE) 1,928 7.2 -23.2°
Sets 00:19:43 0° 16° (NNE) 2,835 8.4 -23.1°
